Wind_Speed
13 14 14 14 13 13 13 13 12 11 11 11 11 10 10 9 8 7 7 7 6 6 6 5 5 4 4 4 4 4 4 3 3 2 2 3 2 3 3 4 3 3 2
15 15 15 16 15 14 14 14 13 13 12 12 12 12 12 11 10 9 8 7 7 7 7 6 6 6 5 5 5 5 5 5 4 3 3 3 3 3 3 4 4 3 3
16 16 17 17 16 16 15 15 14 14 14 13 13 13 13 13 12 10 10 9 8 8 8 7 7 7 7 7 6 6 6 6 6 5 4 4 4 3 4 4 4 4 3
18 18 18 18 17 17 17 17 16 15 15 15 15 15 14 14 13 12 11 11 10 9 9 9 8 8 8 8 8 8 7 7 7 6 6 5 5 5 5 5 4 5 4
19 19 19 19 18 18 18 18 18 17 16 16 16 16 15 15 14 13 12 12 12 11 11 10 10 10 9 9 9 8 8 8 8 8 7 6 6 6 6 5 5 5 5
21 21 20 20 20 20 19 19 19 18 18 17 17 17 17 16 15 15 14 14 13 13 12 12 11 11 11 10 10 9 9 9 9 9 9 8 8 7 7 6 6 5 5
22 22 22 21 21 21 21 20 20 20 19 19 18 18 18 17 17 16 16 16 15 15 14 13 13 12 12 12 12 11 11 10 10 9 9 9 9 8 8 7 7 7 6
24 23 23 22 22 22 22 22 21 21 21 20 20 19 19 19 18 18 17 17 17 17 16 16 15 14 14 14 14 13 13 12 11 11 11 11 10 9 9 8 8 8 8
25 24 24 24 24 23 23 23 23 23 22 22 21 20 20 20 20 20 19 19 18 18 18 18 17 17 16 16 16 16 15 15 14 13 12 12 12 11 11 10 10 10 10
26 26 26 26 26 26 25 24 24 24 24 24 23 22 21 21 21 21 21 21 20 20 21 20 19 19 18 18 18 18 17 17 16 15 15 14 14 14 13 12 11 11 11
27 28 28 28 28 28 28 27 26 26 26 26 26 25 24 23 23 23 23 23 22 22 22 22 22 21 21 21 20 19 19 18 18 18 17 17 16 16 15 14 13 13 12
29 29 30 30 30 30 30 29 28 28 28 28 28 27 26 26 25 25 25 24 25 25 24 25 25 24 24 24 23 22 21 20 20 20 19 19 18 18 17 16 15 15 14
31 31 32 32 32 32 31 31 30 30 30 30 30 29 29 28 28 27 27 26 27 27 27 28 28 27 26 26 26 25 24 23 22 21 21 21 20 20 19 18 17 16 16
33 33 33 33 33 33 33 33 33 32 31 32 32 32 31 31 30 29 29 29 30 30 29 29 29 30 29 28 28 27 26 25 24 23 23 23 22 22 21 20 20 18 17
33 33 34 34 35 35 35 34 34 33 33 33 34 34 34 33 32 32 32 32 31 31 32 32 31 31 31 30 30 29 29 28 26 25 25 25 24 24 23 22 22 20 19
35 35 35 35 36 36 36 36 35 35 35 34 34 35 36 35 35 34 34 33 33 33 34 34 33 33 32 32 31 31 30 30 29 27 26 25 25 25 25 24 24 22 21
37 37 36 36 36 37 37 37 37 37 37 36 36 37 38 37 37 37 37 36 35 35 34 34 34 33 34 33 33 33 32 31 31 30 29 28 26 26 26 25 25 24 23
38 39 38 38 38 38 38 39 39 39 39 38 38 39 39 39 39 38 39 38 36 35 34 34 35 34 35 34 34 34 34 34 33 32 31 30 29 28 28 27 27 26 26
40 40 41 40 40 40 39 40 41 41 41 41 41 40 40 41 41 41 41 40 38 37 36 35 36 35 35 36 35 35 36 35 35 34 33 32 31 30 30 30 29 28 28
42 43 43 43 43 42 41 41 42 42 42 43 43 42 41 41 42 42 42 41 40 39 38 37 36 36 36 36 36 36 37 37 36 35 34 34 33 33 32 32 31 30 30
45 45 45 45 44 43 43 43 42 42 42 43 43 43 43 43 42 43 43 42 40 40 39 38 37 37 36 36 36 36 37 37 37 37 36 35 35 35 34 34 34 33 32
46 46 46 46 45 45 44 44 44 44 43 43 44 44 43 43 43 42 42 42 41 41 40 39 39 38 37 37 36 37 37 38 38 38 38 37 37 37 36 36 36 35 34
46 46 46 47 46 46 46 45 46 46 45 45 45 44 43 43 43 42 41 41 41 41 41 40 40 40 39 39 38 38 38 39 39 39 39 39 39 38 38 37 37 37 37
47 46 46 47 48 47 47 46 47 47 47 46 46 45 44 44 44 43 42 42 42 42 42 42 41 41 41 40 38 38 40 40 40 40 40 41 41 41 40 40 39 38 38
47 47 47 48 49 49 49 48 48 47 48 47 46 46 44 44 45 45 44 44 44 43 43 43 42 42 42 41 41 39 40 41 41 41 41 41 41 41 42 41 41 40 39
47 47 47 48 49 49 49 49 48 48 48 47 47 47 46 45 46 46 45 44 44 45 44 43 43 42 42 42 42 42 40 41 41 42 43 42 42 42 43 43 42 42 41
Wind_Direction
255 255 255 257 257 257 260 263 262 262 259 255 255 255 253 251 253 255 256 252 251 249 247 247 248 246 237 231 229 224 218 216 204 194 191 195 187 189 185 182 186 192 184
255 256 256 257 257 258 259 260 261 260 258 256 255 255 256 252 253 256 257 257 254 252 248 247 249 248 245 239 235 229 228 228 225 219 212 209 201 197 196 198 202 208 205
256 256 257 257 257 258 259 261 261 259 257 255 254 256 258 255 253 254 256 257 257 256 254 253 249 247 246 243 240 238 236 234 230 227 225 220 216 215 214 214 215 215 222
257 256 256 257 257 257 258 259 260 259 257 256 256 257 258 258 255 254 255 256 256 256 255 255 252 247 246 244 243 241 240 238 234 232 231 226 219 219 220 223 224 222 225
259 258 257 257 256 256 256 257 257 258 257 256 257 257 259 259 258 257 257 257 256 254 254 254 255 252 250 249 246 245 242 241 239 237 234 228 222 220 224 229 230 227 224
259 258 257 256 256 255 256 256 257 256 256 256 258 259 259 259 259 258 258 258 257 255 253 254 254 253 252 251 250 249 247 246 242 241 236 233 231 227 229 234 233 231 232
259 258 258 256 255 255 255 255 255 256 256 256 258 258 259 261 260 258 257 256 257 257 255 255 255 253 251 252 252 252 252 249 244 247 243 237 235 233 231 234 240 241 243
259 258 257 256 255 255 255 255 255 256 256 256 257 257 258 259 260 259 257 256 256 256 255 256 257 255 253 252 251 252 252 250 249 247 245 241 238 238 236 235 238 242 246
259 257 256 256 256 256 256 256 255 255 256 256 256 257 257 258 259 259 258 258 257 257 257 256 257 256 255 254 253 253 253 253 252 249 246 245 241 240 240 239 241 243 247
260 258 257 258 258 257 256 256 256 256 255 255 255 256 257 257 259 260 258 258 258 257 257 257 256 256 255 255 255 255 254 253 253 251 248 246 245 244 241 239 242 244 245
261 259 259 259 259 258 257 256 256 256 256 254 254 256 257 258 258 260 259 258 257 257 257 257 256 255 255 255 255 255 255 255 253 252 249 248 247 248 245 243 243 245 246
261 261 260 259 259 259 258 257 257 256 256 255 254 255 257 258 258 258 259 258 257 257 257 257 256 255 254 254 254 255 256 255 254 252 250 249 248 248 248 245 244 246 247
262 262 261 260 259 258 258 258 257 257 256 255 254 255 257 257 258 258 257 257 258 258 258 258 258 256 255 254 253 254 255 255 253 252 250 249 249 248 247 246 244 246 248
263 262 261 260 259 258 258 258 257 257 257 256 256 256 256 257 258 259 259 259 259 258 259 259 259 257 257 257 255 254 255 254 253 252 250 250 250 248 247 246 244 245 248
264 263 263 262 260 259 259 258 258 257 258 258 257 256 255 257 257 259 261 261 260 259 258 260 259 257 256 255 254 254 254 253 252 251 250 251 250 248 247 248 246 245 247
263 263 263 262 261 260 259 258 257 258 259 260 259 257 256 256 258 261 262 262 261 260 260 260 258 256 254 254 253 254 254 254 252 251 250 250 250 248 248 248 248 245 246
263 263 262 262 261 260 260 259 257 258 259 259 259 258 258 258 259 260 261 262 262 261 259 258 258 256 254 253 252 253 252 253 252 251 250 250 249 248 247 247 247 247 246
263 263 262 261 261 261 260 260 259 258 259 259 259 259 260 260 259 259 260 261 261 259 258 258 257 255 253 252 252 252 252 251 252 251 250 249 249 248 248 248 248 250 249
263 262 261 261 261 261 261 261 260 260 260 259 259 260 261 261 259 260 260 259 258 258 258 258 257 254 253 252 253 252 251 251 251 250 249 248 248 248 249 248 248 250 251
263 262 261 260 260 260 261 261 260 260 260 259 259 260 261 261 261 260 259 258 257 257 256 257 257 255 253 252 252 252 251 250 250 249 248 249 249 248 249 249 248 249 251
263 262 261 260 259 259 260 261 260 260 260 260 260 260 261 261 262 260 258 257 256 256 256 256 256 254 253 251 250 250 251 250 249 248 248 249 249 248 248 249 249 249 251
264 262 260 259 258 258 259 260 260 260 259 260 260 260 261 261 261 260 258 256 256 255 255 255 255 253 251 251 250 250 249 249 249 248 248 248 248 248 247 247 248 249 251
263 261 259 258 258 258 259 260 260 260 260 260 261 261 260 259 258 258 258 257 256 255 254 254 253 253 252 251 252 251 250 248 248 248 249 249 248 247 247 247 248 249 249
262 261 259 258 257 258 259 260 261 261 260 260 260 260 258 258 257 257 258 258 256 255 255 255 254 253 253 251 251 252 252 251 251 250 249 249 247 247 247 248 248 249 249
261 261 259 258 258 258 259 260 260 261 261 260 260 259 258 257 257 257 257 257 256 256 255 255 254 253 253 252 252 253 254 253 253 252 250 249 249 247 247 248 248 249 250
262 261 259 259 258 259 259 260 261 260 260 259 259 258 257 256 256 256 256 256 257 256 255 254 253 252 253 253 253 254 254 254 254 253 251 250 250 249 248 249 249 249 250
Height
5834 5834 5835 5835 5836 5837 5837 5838 5838 5839 5839 5840 5840 5841 5841 5841 5841 5842 5842 5843 5843 5843 5844 5844 5845 5845 5846 5846 5846 5846 5847 5847 5847 5848 5848 5849 5849 5849 5850 5850 5851 5851 5852
5831 5832 5832 5833 5834 5835 5835 5836 5836 5837 5837 5838 5838 5839 5839 5840 5840 5840 5841 5841 5842 5842 5843 5843 5844 5844 5845 5845 5845 5846 5846 5846 5847 5847 5848 5848 5849 5849 5849 5850 5851 5851 5851
5828 5829 5830 5830 5831 5832 5832 5833 5834 5834 5835 5836 5836 5837 5837 5838 5838 5839 5839 5840 5840 5841 5841 5842 5842 5843 5843 5844 5844 5845 5845 5846 5846 5847 5847 5848 5848 5849 5849 5850 5850 5851 5851
5825 5826 5826 5827 5828 5829 5829 5830 5831 5832 5832 5833 5834 5834 5835 5836 5836 5837 5837 5838 5839 5839 5840 5840 5841 5841 5842 5843 5843 5843 5844 5845 5845 5846 5846 5847 5847 5848 5848 5849 5849 5850 5850
5821 5822 5822 5823 5824 5825 5826 5827 5827 5828 5829 5830 5831 5832 5833 5833 5834 5834 5835 5836 5836 5837 5838 5838 5839 5839 5840 5841 5841 5842 5843 5843 5844 5844 5845 5846 5846 5847 5847 5848 5848 5849 5849
5817 5818 5818 5819 5820 5821 5822 5823 5824 5825 5826 5827 5828 5829 5829 5830 5831 5832 5832 5833 5834 5835 5835 5836 5837 5837 5838 5839 5839 5840 5841 5842 5842 5843 5844 5844 5845 5846 5846 5847 5847 5848 5848
5812 5813 5814 5815 5815 5816 5818 5819 5820 5821 5822 5823 5824 5825 5826 5827 5828 5828 5829 5830 5831 5832 5833 5833 5834 5835 5836 5836 5837 5838 5839 5839 5840 5841 5842 5843 5844 5844 5845 5845 5846 5847 5847
5807 5808 5809 5810 5811 5812 5813 5814 5815 5816 5817 5819 5820 5821 5822 5823 5824 5825 5826 5827 5827 5828 5829 5830 5831 5832 5833 5834 5835 5835 5836 5837 5838 5839 5840 5841 5842 5842 5843 5844 5844 5845 5846
5802 5803 5804 5805 5806 5807 5808 5809 5811 5812 5813 5814 5815 5816 5817 5819 5820 5820 5821 5823 5823 5824 5825 5826 5827 5829 5830 5831 5832 5832 5833 5834 5835 5836 5837 5838 5839 5840 5841 5842 5842 5843 5844
5797 5798 5799 5800 5801 5802 5803 5804 5805 5807 5808 5809 5810 5811 5812 5813 5815 5816 5817 5818 5819 5820 5821 5822 5823 5824 5826 5827 5828 5829 5830 5831 5832 5833 5835 5835 5837 5838 5839 5839 5840 5841 5842
5791 5792 5793 5794 5795 5796 5797 5799 5800 5801 5802 5803 5805 5806 5807 5808 5809 5810 5811 5813 5814 5815 5816 5817 5818 5819 5821 5822 5824 5825 5826 5827 5829 5830 5831 5832 5833 5835 5836 5837 5838 5839 5840
5785 5786 5787 5788 5789 5790 5791 5792 5793 5794 5796 5797 5798 5800 5801 5802 5803 5804 5805 5807 5808 5809 5810 5811 5813 5814 5815 5817 5818 5820 5821 5823 5824 5825 5827 5829 5830 5831 5833 5834 5835 5836 5837
5778 5779 5780 5781 5782 5783 5784 5785 5786 5788 5789 5790 5791 5793 5794 5796 5797 5798 5799 5800 5801 5802 5804 5805 5806 5808 5809 5811 5812 5814 5816 5817 5819 5821 5822 5824 5826 5827 5829 5830 5831 5832 5834
5770 5771 5772 5773 5774 5775 5776 5778 5779 5780 5782 5783 5784 5785 5787 5789 5790 5791 5792 5793 5794 5795 5796 5797 5798 5800 5802 5803 5805 5807 5809 5811 5813 5815 5817 5819 5821 5822 5824 5826 5827 5829 5830
5763 5763 5764 5765 5766 5767 5768 5770 5771 5773 5774 5775 5777 5778 5779 5781 5782 5783 5784 5785 5785 5786 5787 5788 5790 5791 5793 5795 5797 5800 5802 5804 5807 5809 5811 5813 5815 5817 5819 5821 5823 5824 5826
5754 5755 5756 5757 5757 5758 5759 5761 5762 5764 5766 5767 5769 5770 5771 5772 5773 5774 5775 5776 5776 5777 5778 5779 5780 5782 5784 5787 5789 5792 5795 5797 5800 5802 5805 5807 5810 5812 5814 5816 5817 5819 5821
5745 5746 5747 5748 5749 5749 5751 5752 5753 5755 5757 5758 5760 5761 5762 5763 5764 5765 5766 5766 5767 5767 5768 5769 5771 5772 5775 5778 5781 5783 5786 5789 5792 5795 5798 5801 5803 5806 5808 5810 5812 5814 5815
5736 5737 5737 5739 5740 5740 5741 5743 5744 5745 5747 5749 5750 5752 5753 5753 5754 5755 5756 5757 5757 5758 5759 5760 5761 5763 5766 5769 5772 5775 5778 5781 5784 5787 5790 5793 5796 5799 5802 5804 5806 5808 5810
5726 5726 5727 5729 5730 5731 5732 5733 5734 5736 5737 5739 5740 5741 5742 5743 5744 5745 5746 5746 5747 5748 5749 5751 5752 5754 5756 5759 5762 5765 5769 5772 5775 5779 5783 5786 5789 5792 5794 5797 5799 5801 5803
5715 5715 5716 5718 5719 5721 5722 5723 5724 5725 5727 5728 5729 5731 5731 5732 5733 5734 5735 5736 5737 5739 5740 5741 5743 5745 5747 5750 5753 5756 5759 5763 5767 5770 5774 5778 5781 5784 5786 5789 5792 5794 5796
5703 5704 5705 5706 5708 5709 5711 5712 5713 5715 5716 5718 5719 5720 5721 5721 5722 5723 5724 5726 5727 5729 5730 5732 5733 5735 5738 5741 5744 5747 5751 5754 5758 5762 5766 5769 5772 5775 5778 5781 5783 5786 5789
5690 5692 5693 5694 5696 5698 5699 5701 5702 5703 5705 5707 5708 5708 5709 5710 5711 5712 5714 5715 5717 5719 5720 5722 5724 5726 5729 5731 5734 5738 5742 5746 5749 5753 5757 5760 5763 5766 5769 5772 5775 5777 5780
5677 5678 5680 5682 5684 5685 5687 5689 5690 5691 5693 5695 5696 5697 5698 5699 5700 5701 5703 5704 5706 5708 5710 5712 5714 5717 5719 5722 5724 5728 5732 5736 5740 5744 5747 5750 5753 5756 5760 5763 5765 5768 5771
5664 5665 5667 5669 5671 5673 5674 5676 5677 5679 5681 5682 5684 5685 5686 5687 5689 5690 5692 5694 5696 5698 5700 5702 5704 5707 5710 5713 5715 5718 5722 5726 5729 5734 5737 5739 5742 5746 5749 5753 5756 5758 5761
5650 5651 5653 5655 5657 5659 5661 5663 5664 5666 5668 5669 5671 5673 5674 5676 5677 5679 5681 5683 5685 5687 5689 5692 5694 5696 5699 5703 5706 5708 5711 5714 5718 5722 5726 5729 5732 5735 5739 5742 5746 5749 5751
5636 5637 5639 5641 5643 5645 5647 5649 5650 5652 5654 5656 5658 5660 5662 5664 5666 5668 5670 5672 5674 5676 5679 5681 5683 5686 5689 5692 5695 5697 5700 5703 5707 5710 5714 5718 5721 5725 5728 5732 5735 5738 5741